Tracking 23611 objects as of 18-Sep-2021
HD Live streaming from Space Station
objects crossing your sky now
Track INSPIRATION-4

STARLINK-1141

Track STARLINK-1141 now!
10-day predictions
STARLINK-1141 is classified as:


NORAD ID: 45051
Int'l Code: 2020-006H
Perigee: 553.0 km
Apogee: 555.8 km
Inclination: 53.1 °
Period: 95.6 minutes
Semi major axis: 6925 km
RCS: Unknown
Launch date: January 29, 2020
Source: United States (US)
Launch site: AIR FORCE EASTERN TEST RANGE (AFETR)
aabbcc
Your satellite tracking list
Your tracking list is empty




NASA's NSSDC Master Catalog

Two Line Element Set (TLE):
1 45051U 20006H   21260.86628518 -.00001410  00000-0 -75763-4 0  9998
2 45051  53.0547  61.1391 0002058  92.8166 267.3059 15.06390814 90209
Source of the keplerian elements: AFSPC